Regional Weather Roundup
Issued by NWS

Home | Current Version | Previous Version | Graphics & Text | Print | Product List | Glossary On
Versions: 1 2 3 4 5 6 7 8 9 10 11 12 13 14 15 16 17 18 19 20 21 22 23 24 25 26 27 28 29 30 31 32 33 34 35 36 37 38 39 40 41 42 43 44 45 46 47 48 49 50
000
ASUS43 KLMK 290502
RWRKY
KENTUCKY REGIONAL WEATHER ROUNDUP
NATIONAL WEATHER SERVICE LOUISVILLE KY
1200 AM EST THU JAN 29 2015

NOTE "FAIR" INDICATES FEW OR NO CLOUDS BELOW 12,000 FEET
WITH NO SIGNIFICANT WEATHER AND/OR OBSTRUCTIONS TO VISIBILITY.

KYZ001>023-026-027-061>063-070>075-290600-
WESTERN AND SOUTH CENTRAL KENTUCKY

CITY           SKY/WX    TMP DP  RH WIND       PRES   REMARKS
PADUCAH        CLOUDY    47  30  51 S8        30.01F
HENDERSON      CLOUDY    39  25  56 SE10      30.00F WCI  32
OWENSBORO      MOCLDY    41  26  55 S16       30.03F
HOPKINSVILLE   PTCLDY    43  27  53 S9        30.08F
BOWLING GREEN  MOCLDY    32  24  72 E3        30.13F
GLASGOW        NOT AVBL
$$

KYZ024-025-028>034-038-045-046-053-290600-
NORTH CENTRAL KENTUCKY

CITY           SKY/WX    TMP DP  RH WIND       PRES   REMARKS
LOUISVILLE/SDF MOCLDY    34  18  52 SE9       30.11F WCI  27
LOUISVILLE/LOU PTCLDY    35  17  47 SE6       30.12F WCI  30
FORT KNOX      MOCLDY    35  16  45 SE10      30.08F WCI  27
$$

KYZ035>037-039>044-047>052-055>060-089>105-290600-
NORTHEAST KENTUCKY

CITY           SKY/WX    TMP DP  RH WIND       PRES   REMARKS
LEXINGTON      MOCLDY    32  21  64 SE13      30.14F WCI  22
COVINGTON      CLOUDY    31  19  61 SE10      30.11F WCI  22
FRANKFORT      MOCLDY    32  20  61 SE7       30.12F WCI  26
$$

KYZ054-064>069-076>088-106>120-290600-
SOUTHEAST KENTUCKY

CITY           SKY/WX    TMP DP  RH WIND       PRES   REMARKS
JACKSON        PTCLDY    31  18  58 VRB5      30.17F WCI  26
LONDON         PTCLDY    30  19  63 CALM      30.17F
SOMERSET       NOT AVBL
MIDDLESBORO    PTCLDY    27  24  87 CALM      30.24S
MONTICELLO     PTCLDY    37  18  46 S5        30.20S WCI  33
$$




USA.gov is the U.S. government's official web portal to all federal, state and local government web resources and services.